Regional Weather Roundup
Issued by NWS State College, PA

Home | Current Version | Previous Version | Graphics & Text | Print | Product List | Glossary Off
Versions: 1 2 3 4 5 6 7 8 9 10 11 12 13 14 15 16 17 18 19 20 21 22 23 24 25 26 27 28 29 30 31 32 33 34 35 36 37 38 39 40 41 42 43 44 45 46 47 48 49 50

000
ASUS41 KCTP 220610
RWRCTP

REGIONAL WEATHER ROUNDUP
NATIONAL WEATHER SERVICE STATE COLLEGE PA
200 AM EDT FRI SEP 22 2017

Note: "fair" indicates few or no clouds below 12,000 feet with no
significant weather and/or obstructions to visibility.

* = STATION THAT DOES NOT REPORT PRECIPITATION /E.G. RAIN...SNOW...ETC/
    THUNDER OR FOG.

PAZ002>004-007>009-013>016-020>023-029>032-220700-
WESTERN PENNSYLVANIA

CITY           SKY/WX    TMP DP  RH WIND       PRES   REMARKS
ERIE           CLEAR     63  57  81 CALM      30.11R
MEADVILLE      CLEAR     67  62  84 E5        30.14R
FRANKLIN*      CLEAR     61  59  93 NE5       30.15S
NEW CASTLE     FAIR      59  59 100 CALM      30.12S
BEAVER COUNTY  NOT AVBL
BUTLER*        CLEAR     58  58 100 NE3       30.13S
PITTSBURGH INT CLEAR     66  62  87 CALM      30.11S
PITTSBURGH     CLEAR     66  60  81 SE3       30.11R
INDIANA*       CLEAR     61  59  94 CALM      30.15S
LATROBE        CLEAR     59  59 100 CALM      30.12S
WASHINGTON CO* MOCLDY    57  55  94 CALM      30.11S VSB 1/2
$$

PAZ004>006-010>012-017>019-024>028-033>037-041-042-045-046-049>053-220700-
CENTRAL PENNSYLVANIA

CITY           SKY/WX    TMP DP  RH WIND       PRES   REMARKS
BRADFORD       PTCLDY    56  55  97 CALM      30.17S
DUBOIS         PTCLDY    64  57  78 NE3       30.14S
CLEARFIELD     PTCLDY    59  58  96 NW5       30.15R
JOHNSTOWN      PTCLDY    64  57  78 CALM      30.16R
ALTOONA        PTCLDY    60  58  92 CALM      30.14R
STATE COLLEGE  PTCLDY    64  61  92 CALM      30.13R
WILLIAMSPORT   CLOUDY    64  62  93 CALM      30.09S
SELINSGROVE    CLOUDY    60  60 100 CALM      30.09S
FT INDIANTOWN  CLOUDY    71  63  73 NE6       30.06S
CAPITAL CITY   CLOUDY    67  63  87 W5        30.06S
HARRISBURG     CLOUDY    70  68  93 NW9       30.05S
YORK           PTCLDY    63  63 100 CALM      30.06F
$$

PAZ038>040-043-044-047-048-054-055-060>062-067>071-220700-
EASTERN PENNSYLVANIA

CITY           SKY/WX    TMP DP  RH WIND       PRES   REMARKS
SCRANTON       CLOUDY    62  60  93 S3        30.08F
MOUNT POCONO   CLOUDY    59  59 100 N7        30.11S
ALLENTOWN      CLOUDY    66  60  81 CALM      30.05S
QUAKERTOWN*    MOCLDY    63  63 100 CALM      30.06F
READING        PTCLDY    70  66  87 CALM      30.03F
LANCASTER      MOCLDY    68  65  90 E3        30.05S
COATESVILLE    PTCLDY    68  64  88 CALM      30.06F
POTTSTOWN      CLOUDY    65  64  97 CALM      30.06F
BLUE BELL      CLOUDY    63  61  94 CALM      30.05S
DOYLESTOWN     CLOUDY    67  62  84 NE5       30.04S
WILLOW GROVE   NOT AVBL
NORTH PHILA    CLOUDY    73  61  65 N8        30.04S
PHILADELPHIA   CLOUDY    73  60  63 N8        30.02F
$$



USA.gov is the U.S. government's official web portal to all federal, state and local government web resources and services.